Wind_Speed
8 7 7 7 7 6 5 5 5 4 4 4 4 3 4 5 6 6 7 7 7 7 7 8 7 7 6 6 7 6 5 5 5 5 5 5 5 6 6 6 6 6 6 5
9 8 7 7 7 6 6 6 6 5 4 3 3 3 4 4 5 6 7 7 7 7 7 7 7 7 6 6 6 6 6 6 5 5 5 4 5 4 4 4 4 4 4 4
8 8 8 7 7 6 6 6 5 5 5 5 4 4 4 4 6 6 7 7 6 7 7 7 7 6 6 6 6 6 6 6 5 5 5 4 4 4 3 3 2 2 2 3
9 8 8 7 7 7 7 6 6 6 6 5 4 4 4 5 6 6 7 7 6 7 7 7 7 6 6 6 6 6 6 5 5 4 4 4 4 3 3 2 1 1 2 2
9 9 8 7 7 8 7 7 8 7 6 6 5 5 4 5 5 6 7 7 6 6 7 7 7 7 6 6 6 6 6 5 5 4 4 3 3 3 3 2 2 3 3 2
11 10 9 8 9 8 8 8 8 8 7 7 6 5 4 5 5 5 6 7 7 6 7 7 7 7 7 6 5 5 5 5 5 4 3 3 2 2 2 3 3 3 3 2
12 11 10 9 10 9 9 9 9 9 7 7 6 6 5 4 5 6 6 7 7 7 6 7 7 7 7 6 6 5 5 5 5 4 3 3 3 3 3 3 3 4 4 3
13 12 11 11 10 10 10 10 9 9 8 8 8 7 6 5 5 5 6 7 7 7 6 7 7 7 7 7 6 6 6 6 5 4 4 4 3 3 3 3 3 4 4 3
13 13 12 12 11 11 11 10 10 10 10 11 11 9 8 7 7 6 7 7 7 7 7 6 7 7 7 7 7 6 6 6 5 4 4 4 4 3 3 3 4 4 5 5
15 14 13 13 12 12 12 12 11 11 11 12 11 10 9 9 8 8 8 8 8 8 7 7 6 6 6 7 7 7 6 6 5 4 4 4 4 4 4 4 5 5 5 5
15 15 15 14 14 13 13 14 13 13 13 14 14 12 10 10 10 10 9 8 8 8 8 7 7 6 7 7 7 7 7 6 5 5 5 4 5 5 5 5 5 5 5 5
16 16 16 15 14 14 13 14 14 14 14 15 14 13 11 11 11 11 9 9 8 8 8 8 7 7 7 7 7 7 7 6 6 5 5 5 5 5 5 5 5 6 6 6
17 18 18 17 16 15 15 14 15 15 16 15 15 14 13 13 13 12 11 10 10 10 9 9 9 9 8 7 7 8 8 7 7 7 7 7 7 7 7 7 7 6 6 7
19 19 19 18 17 16 16 16 16 16 17 16 15 15 14 13 13 12 12 12 11 11 10 10 10 10 9 8 8 8 8 8 7 7 8 8 7 7 7 8 8 8 8 7
20 20 19 18 18 18 17 17 17 18 18 18 17 16 15 14 15 14 13 13 12 11 11 11 11 11 10 10 10 9 9 9 8 8 8 9 8 8 8 8 8 8 8 8
21 21 21 20 20 20 19 18 19 19 19 19 19 18 16 15 16 16 15 14 14 13 13 13 13 12 12 12 11 11 11 10 9 9 9 9 9 9 9 9 9 9 9 9
23 23 22 22 22 22 22 20 20 20 20 20 20 19 19 17 16 16 17 16 16 15 15 14 14 14 13 13 13 13 12 11 11 11 10 10 10 11 11 11 10 10 10 10
24 24 24 24 24 25 21 20 21 21 21 21 21 21 20 19 18 18 18 18 18 18 17 16 16 15 15 15 14 14 14 13 13 12 12 12 12 12 12 11 12 11 11 11
26 25 25 25 26 26 23 22 22 22 22 22 22 22 21 20 20 19 19 19 19 19 18 18 17 16 16 15 15 15 14 14 14 13 13 13 12 13 13 13 13 13 13 13
27 27 26 26 26 26 23 22 22 23 22 21 22 22 22 22 21 20 20 20 20 20 20 19 18 18 17 17 16 15 15 15 15 15 14 14 13 14 14 13 14 14 14 14
28 28 28 27 27 25 23 22 23 23 22 22 22 23 23 23 22 21 21 21 21 21 21 21 20 19 19 18 18 17 17 17 17 16 16 16 15 15 16 15 15 15 15 15
28 28 28 28 28 25 23 23 23 23 23 23 24 24 24 23 23 22 22 22 22 23 23 22 22 21 20 20 20 19 19 19 19 19 18 18 17 17 17 17 17 16 16 16
29 29 29 29 28 26 25 25 25 24 24 24 25 25 25 24 24 24 24 24 24 24 24 24 23 23 22 22 22 21 21 20 20 20 20 20 19 19 19 18 19 19 19 18
30 31 31 30 29 28 27 27 27 26 26 25 26 26 25 25 26 25 25 26 25 25 25 25 25 24 23 22 22 23 22 22 22 22 21 21 21 20 20 20 20 20 21 21
31 32 31 30 30 30 30 29 29 29 28 28 27 27 27 27 27 26 26 26 26 26 26 26 27 26 25 24 24 24 24 24 24 24 23 23 22 22 22 22 22 22 22 23
31 31 31 30 30 31 31 30 29 29 29 29 29 29 28 28 27 26 26 27 27 27 27 28 28 27 27 27 26 25 25 25 25 25 25 24 24 24 24 24 24 23 23 24
Wind_Direction
258 261 266 268 269 276 283 287 291 295 296 294 299 302 321 332 336 340 342 342 339 331 327 325 322 317 317 321 327 326 320 313 311 310 306 305 298 295 290 281 280 278 278 274
255 260 264 266 273 276 276 281 288 290 293 293 300 315 325 334 336 344 344 338 341 340 337 331 327 322 314 320 323 325 324 323 315 311 313 316 316 311 302 284 279 272 275 269
255 259 262 262 264 266 270 273 286 287 292 293 301 323 325 340 346 349 347 343 344 346 340 338 336 332 324 318 322 327 326 323 314 308 308 313 320 322 317 310 288 269 270 273
251 256 261 261 259 257 262 274 286 288 290 297 305 321 319 331 340 348 348 350 352 354 350 345 342 338 331 323 322 327 330 323 316 305 303 308 317 324 322 321 298 296 290 283
248 251 255 255 259 255 262 273 278 284 283 285 292 307 314 316 328 339 347 352 350 350 348 343 341 340 335 327 325 325 323 322 316 304 301 306 308 312 305 288 284 303 311 296
245 249 249 250 254 256 258 266 271 275 280 283 283 295 313 319 328 339 346 347 345 343 341 339 339 337 334 333 330 324 323 325 319 303 293 298 295 298 300 298 286 290 300 306
243 244 246 247 249 256 256 260 267 269 271 282 285 290 305 306 322 333 341 338 335 333 334 335 334 333 329 331 333 322 320 322 322 312 291 286 281 277 283 292 293 294 299 298
246 244 246 249 253 261 254 258 265 270 275 277 281 290 299 299 313 325 333 331 328 327 325 327 328 327 326 330 332 325 321 322 323 313 291 284 272 265 273 285 295 304 311 316
246 247 248 250 254 254 253 256 259 264 269 273 277 280 286 290 302 312 318 320 320 319 320 321 321 320 319 322 328 328 319 319 319 319 299 281 266 259 266 278 293 301 301 299
246 248 245 248 251 252 253 252 256 260 264 266 272 276 285 292 294 296 299 303 308 313 313 314 316 317 316 317 321 322 318 310 305 304 303 288 271 269 278 280 287 296 300 292
246 249 249 250 250 256 254 253 253 255 260 263 268 273 279 282 283 285 288 295 299 305 308 306 310 315 317 314 313 311 309 309 304 295 299 300 288 280 279 280 284 293 297 293
248 252 251 251 252 254 256 256 255 255 260 262 266 269 271 275 280 283 286 291 293 294 296 297 300 303 308 309 310 308 304 297 296 293 292 299 300 291 288 283 281 283 285 285
247 251 252 251 252 253 254 258 261 259 258 262 264 270 268 272 278 283 286 287 290 291 290 289 292 295 296 300 302 303 301 295 289 285 287 287 292 293 294 292 291 290 288 285
246 250 251 252 257 258 256 257 259 260 261 260 263 267 269 273 276 281 283 285 287 288 286 284 286 290 291 292 293 294 295 292 290 285 283 283 284 288 291 291 291 291 290 287
244 248 251 252 255 257 256 255 257 260 260 259 261 265 268 270 274 276 278 279 280 279 280 281 282 285 288 288 287 287 287 285 283 280 279 280 281 284 285 286 286 286 285 284
244 249 251 252 255 256 253 254 258 260 260 260 261 263 265 266 268 270 270 271 273 274 277 278 280 280 282 283 282 281 282 282 279 276 277 278 278 281 284 284 283 283 281 280
244 249 251 251 253 255 254 256 259 262 262 261 262 264 264 264 265 267 266 267 268 269 274 275 278 279 279 280 280 278 279 279 277 278 277 276 277 278 280 280 280 280 280 279
245 249 252 253 253 253 256 257 259 261 261 262 263 262 262 263 264 264 264 264 266 268 270 272 274 275 276 278 277 276 277 276 275 275 273 273 274 276 273 274 275 276 276 275
246 249 253 255 256 256 256 256 258 261 262 261 261 261 261 261 262 261 261 262 263 265 267 268 271 273 273 275 276 275 274 274 274 274 271 271 271 271 271 271 271 272 273 274
245 248 252 255 257 257 259 259 259 260 261 262 262 262 263 262 264 262 261 262 263 265 266 267 268 271 271 272 273 273 273 273 273 272 270 271 270 269 269 270 270 271 272 274
246 249 252 254 256 259 259 258 260 260 264 263 263 263 263 263 264 263 261 260 261 263 265 266 265 267 268 269 270 271 272 273 272 271 269 269 270 269 271 272 271 269 271 274
245 248 252 254 256 258 258 259 260 263 263 263 263 264 265 266 264 263 261 258 258 261 263 265 265 265 266 267 268 269 269 270 271 271 269 268 268 268 269 270 270 271 271 273
247 248 251 253 255 256 257 258 260 262 263 265 266 267 267 267 267 265 263 260 258 258 260 262 263 264 265 267 267 267 268 270 270 269 269 268 267 267 266 266 268 270 272 272
247 247 249 251 253 255 257 258 260 261 263 265 267 268 268 267 267 267 266 262 260 258 258 259 260 262 264 266 266 266 265 267 268 268 268 268 267 266 265 265 267 269 271 272
248 247 249 252 253 254 257 260 260 261 263 264 267 267 268 267 268 268 267 266 263 261 259 260 260 260 262 264 266 267 265 265 266 268 268 267 266 266 266 267 267 267 269 270
249 249 251 253 253 254 256 257 260 262 263 264 265 265 266 267 266 266 267 267 265 263 262 261 260 261 262 263 266 267 266 264 265 267 267 266 266 265 265 266 267 269 269 270
Height
5873 5874 5874 5873 5873 5873 5873 5873 5872 5872 5871 5871 5870 5870 5869 5868 5867 5866 5865 5863 5862 5861 5859 5858 5857 5856 5855 5854 5853 5852 5851 5850 5849 5849 5848 5847 5846 5845 5845 5844 5843 5843 5843 5842
5872 5872 5872 5871 5871 5871 5872 5871 5871 5870 5869 5869 5869 5869 5868 5867 5866 5865 5864 5863 5861 5860 5858 5857 5856 5855 5854 5853 5852 5851 5850 5849 5848 5847 5846 5846 5845 5844 5843 5843 5842 5842 5841 5841
5869 5870 5869 5869 5870 5870 5870 5870 5869 5869 5868 5868 5868 5868 5867 5866 5865 5864 5863 5862 5860 5859 5857 5856 5854 5853 5852 5852 5851 5850 5849 5848 5847 5846 5846 5845 5844 5843 5843 5842 5841 5841 5841 5840
5867 5867 5867 5867 5867 5868 5868 5868 5867 5867 5867 5866 5867 5866 5866 5864 5864 5863 5862 5860 5859 5858 5856 5855 5853 5852 5851 5851 5850 5848 5848 5847 5846 5845 5845 5844 5844 5843 5843 5842 5841 5841 5840 5840
5864 5864 5865 5865 5866 5866 5866 5865 5865 5865 5865 5865 5864 5865 5865 5863 5863 5862 5861 5859 5858 5857 5856 5854 5853 5852 5851 5850 5849 5848 5847 5846 5845 5845 5844 5843 5843 5842 5842 5842 5841 5841 5840 5840
5862 5862 5862 5863 5863 5863 5863 5864 5863 5863 5863 5863 5863 5863 5863 5862 5861 5860 5859 5858 5857 5856 5855 5854 5852 5851 5850 5849 5848 5847 5846 5845 5845 5844 5843 5843 5842 5842 5841 5841 5841 5840 5840 5839
5859 5859 5860 5860 5861 5861 5861 5862 5862 5861 5861 5861 5860 5860 5861 5860 5859 5859 5858 5857 5856 5855 5854 5853 5852 5851 5849 5848 5847 5846 5846 5845 5844 5843 5842 5842 5841 5841 5841 5840 5840 5840 5839 5838
5855 5857 5857 5858 5858 5859 5859 5860 5860 5860 5859 5859 5858 5858 5859 5858 5857 5857 5856 5855 5854 5853 5853 5852 5851 5850 5849 5847 5846 5845 5845 5844 5843 5842 5841 5841 5840 5840 5840 5840 5839 5839 5838 5838
5852 5854 5854 5855 5855 5856 5856 5856 5857 5857 5856 5856 5856 5856 5857 5856 5855 5855 5855 5854 5853 5852 5852 5850 5850 5849 5848 5846 5845 5844 5843 5842 5842 5841 5840 5840 5839 5839 5839 5839 5838 5838 5837 5837
5848 5850 5850 5851 5851 5852 5853 5853 5854 5854 5853 5853 5853 5853 5854 5853 5853 5853 5853 5852 5851 5851 5850 5849 5848 5847 5846 5845 5844 5843 5842 5841 5841 5840 5840 5839 5838 5838 5838 5838 5837 5837 5836 5835
5844 5846 5847 5847 5848 5849 5850 5850 5850 5850 5850 5850 5850 5853 5851 5851 5850 5850 5850 5850 5849 5849 5848 5847 5846 5846 5845 5844 5843 5842 5841 5840 5840 5839 5839 5838 5838 5837 5837 5836 5836 5836 5835 5834
5840 5841 5842 5843 5845 5845 5845 5846 5846 5847 5847 5847 5847 5851 5848 5848 5847 5847 5847 5847 5847 5846 5846 5845 5844 5844 5843 5842 5841 5840 5840 5839 5838 5838 5837 5837 5836 5836 5835 5835 5834 5834 5833 5833
5835 5836 5837 5839 5842 5841 5841 5841 5842 5843 5844 5843 5844 5847 5845 5844 5844 5844 5844 5844 5844 5843 5843 5843 5842 5841 5841 5840 5839 5839 5838 5837 5837 5836 5836 5835 5835 5834 5834 5833 5833 5832 5831 5831
5830 5831 5833 5835 5836 5836 5837 5838 5838 5839 5839 5840 5840 5841 5841 5841 5841 5841 5840 5840 5840 5840 5840 5839 5839 5839 5838 5838 5837 5836 5836 5835 5835 5834 5834 5833 5833 5832 5832 5831 5831 5830 5829 5828
5824 5826 5827 5829 5830 5831 5832 5833 5833 5834 5834 5835 5836 5836 5838 5838 5837 5837 5837 5837 5837 5837 5836 5836 5836 5836 5835 5835 5834 5834 5833 5833 5832 5832 5831 5831 5830 5830 5829 5829 5828 5827 5827 5826
5818 5820 5822 5823 5824 5825 5827 5828 5828 5829 5829 5830 5831 5832 5833 5833 5833 5833 5833 5833 5833 5833 5833 5833 5832 5832 5832 5832 5831 5831 5830 5830 5829 5829 5828 5828 5827 5827 5826 5826 5825 5825 5824 5824
5812 5814 5816 5818 5819 5819 5821 5823 5823 5824 5824 5825 5825 5827 5827 5828 5828 5828 5828 5828 5828 5828 5828 5828 5828 5828 5828 5828 5828 5827 5827 5826 5826 5825 5825 5824 5824 5824 5823 5823 5822 5822 5821 5821
5805 5807 5809 5811 5813 5813 5818 5817 5817 5818 5819 5819 5820 5820 5821 5822 5823 5823 5823 5823 5824 5824 5824 5824 5824 5824 5824 5824 5823 5823 5823 5822 5822 5821 5821 5821 5821 5820 5820 5819 5819 5819 5818 5818
5799 5800 5802 5803 5804 5806 5810 5810 5811 5811 5812 5813 5813 5814 5815 5816 5817 5817 5818 5818 5818 5818 5818 5819 5819 5819 5819 5819 5818 5818 5818 5818 5818 5817 5817 5817 5817 5816 5816 5815 5815 5815 5815 5814
5792 5793 5795 5796 5797 5799 5804 5804 5804 5805 5805 5807 5807 5808 5809 5809 5811 5812 5812 5812 5812 5812 5812 5813 5813 5813 5814 5814 5813 5814 5814 5813 5813 5813 5812 5812 5812 5812 5812 5811 5811 5811 5810 5810
5785 5786 5788 5789 5790 5792 5796 5797 5797 5799 5800 5800 5800 5801 5802 5803 5804 5805 5805 5805 5806 5806 5806 5807 5807 5807 5808 5808 5808 5808 5808 5808 5808 5808 5808 5807 5807 5807 5807 5807 5806 5806 5806 5805
5777 5778 5780 5782 5783 5788 5788 5789 5791 5792 5792 5792 5793 5794 5794 5795 5796 5797 5798 5798 5799 5799 5799 5800 5800 5801 5801 5802 5802 5802 5802 5802 5802 5802 5802 5802 5802 5802 5802 5801 5801 5801 5801 5800
5769 5771 5773 5775 5778 5780 5780 5781 5782 5783 5784 5785 5785 5786 5787 5787 5788 5789 5789 5790 5791 5792 5792 5793 5793 5794 5795 5795 5795 5796 5796 5796 5796 5796 5796 5796 5796 5796 5796 5796 5795 5795 5795 5795
5761 5762 5764 5766 5768 5771 5772 5773 5774 5775 5776 5777 5777 5778 5778 5779 5779 5780 5781 5782 5782 5783 5784 5785 5786 5786 5787 5787 5788 5788 5789 5789 5789 5789 5790 5790 5790 5789 5789 5789 5789 5789 5789 5789
5752 5754 5755 5757 5760 5761 5763 5765 5766 5767 5768 5768 5769 5769 5770 5770 5771 5771 5772 5772 5773 5774 5775 5776 5777 5778 5779 5779 5780 5780 5781 5781 5782 5782 5782 5782 5783 5782 5782 5782 5782 5782 5782 5781
5744 5746 5747 5749 5752 5753 5755 5756 5757 5758 5759 5759 5760 5760 5761 5761 5762 5763 5763 5763 5764 5765 5766 5767 5768 5769 5770 5771 5771 5772 5772 5773 5774 5774 5774 5774 5775 5775 5775 5775 5775 5774 5774 5774